Weather in Kontokali

Greece     39°38′41″N   19°51′08″E
temp.,
°C
wind,
m/s
gust,
m/s
humid.,
%
clouds,
%
prec.,
mm/h
press.,
hPa
HPBL,
m
22 october, fri
fri2200:00+17se22876 0.2 1021120
03:00+16se22882 0.3 1020113
06:00+16se238819 0.0 1020116
09:00+17se33854 0.0 1020151
12:00+20sse347111 0.1 1021860
15:00+21sse44679 0.3 1020977
18:00+20sse347713 0.5 1020582
21:00+18se3386100 0.6 1021158
23 october, sat
sat2300:00+18se338796 0.1 1021157
03:00+17se2389100 0.6 1021112
06:00+17se2390100 0.1 1020139
09:00+18se3388100 0.1 1020208
12:00+21sse3475100 0.1 1021714
15:00+21sse347242 0.3 1020745
18:00+21sse237763 0.3 1020446
21:00+19se228746 0.8 102184
24 october, sun
sun2400:00+18se1187100 0.1 102269
03:00+18e1186100 0.3 102155
06:00+19wsw0083100 0.1 102059
09:00+19s1182100 0.3 102241
12:00+20sse0177100 0.3 1022209
15:00+20wnw1177100 0.8 102153
18:00+19s1278100 0.9 102170
21:00+18ssw2288100 2.9 102171
25 october, mon
mon2500:00+18sse1278100 1.4 102185
03:00+18e128091 1.8 1020104
06:00+17e2373100 0.1 1020145
09:00+16ese3477100 0.6 1021245
12:00+17se2370100 0.0 1022379
15:00+17ese3562100 0.0 1020406
18:00+17e1262100 0.1 1020231
21:00+17e456181 0.1 1020230
26 october, tue
tue2600:00+16e336093 0.0 1020142
03:00+15e226250 0.0 1020103
06:00+15e3460100 0.0 1019130
09:00+15e235848 0.0 1019113
12:00+18ese124739 0.0 1019363
15:00+19nw114756 0.0 1018570
18:00+18nw11575 0.0 1017143
21:00+17wnw12635 0.0 1018141